Wind_Speed
17 17 16 14 14 14 13 12 12 11 10 9 7 6 8 11 13 13 14 14 13 12 12 11 12 11 10 8 6 5 4 7 8 11 10 9 16 11 10 12 7 7 8 8 9 8 6 5 4 4 5 4 3 0 1 2 2 4 3 4 2 3 3 5 7 7 4 5 6 5 5 7 5 2 1 2 5 4 3 3 2 3 3 2 6 5 14 27
17 17 16 15 14 14 13 12 11 10 9 8 7 6 8 11 12 14 13 13 13 11 11 11 11 11 10 8 6 5 5 8 7 8 11 11 14 11 9 10 8 8 8 8 9 9 7 4 3 6 5 2 2 2 1 1 3 4 3 3 3 5 4 4 7 6 3 4 6 4 4 5 6 4 2 2 0 2 4 1 5 4 4 4 2 8 23 27
17 16 15 15 14 14 13 12 11 10 9 8 7 6 8 11 12 13 12 13 12 11 11 11 11 10 9 8 6 5 6 6 3 5 11 12 12 10 8 9 8 8 7 8 8 8 8 6 6 6 5 2 1 2 2 1 1 2 4 3 5 6 4 4 6 6 4 4 6 4 2 2 3 3 1 4 4 2 5 4 0 2 5 1 2 13 23 24
18 16 14 14 14 15 13 12 11 9 9 8 8 7 8 12 12 13 12 12 12 11 11 11 11 10 9 9 6 7 7 3 2 5 11 13 11 9 8 9 9 8 8 8 8 7 7 8 8 6 5 2 3 3 1 1 1 2 4 3 6 4 2 4 6 5 4 5 7 5 4 1 2 2 1 6 6 2 6 7 7 8 8 6 4 10 19 20
17 16 14 13 15 14 13 12 11 10 9 8 8 8 9 12 12 12 12 11 12 11 10 10 10 10 9 8 7 7 5 3 2 5 11 13 10 9 10 9 8 8 8 8 8 7 7 7 7 5 4 2 2 3 1 2 2 2 0 4 5 3 2 3 5 3 3 6 6 6 5 3 2 1 3 9 7 5 7 8 11 10 11 12 11 12 16 16
18 17 13 14 15 15 13 12 11 10 8 7 7 8 9 11 11 11 11 11 11 10 10 10 9 9 9 8 7 6 4 2 1 5 9 12 11 10 11 9 9 8 8 7 7 7 6 5 6 3 3 2 2 2 2 2 2 3 1 2 3 4 1 0 1 2 4 8 7 6 4 3 4 1 3 8 8 8 6 6 9 8 11 16 15 14 13 13
18 16 13 16 16 15 14 13 12 10 8 7 7 8 9 10 11 11 11 11 11 10 10 9 9 9 8 7 6 3 1 2 1 6 8 10 11 11 10 9 9 8 8 8 7 6 5 6 5 4 5 3 3 2 1 2 5 5 2 1 1 3 1 3 3 1 4 8 6 4 4 4 5 2 1 5 10 8 5 4 5 9 12 15 13 13 13 15
18 15 14 17 17 15 15 13 12 10 8 8 7 7 9 9 10 10 11 11 10 10 9 9 9 9 9 8 5 2 1 3 3 7 8 10 11 11 10 9 9 8 8 8 7 7 5 6 6 4 4 1 4 3 1 3 5 4 3 2 1 1 3 5 5 5 5 4 2 5 4 2 4 3 1 7 12 8 4 3 5 10 11 11 11 12 12 13
18 15 15 18 18 16 15 13 11 11 9 8 7 8 8 9 10 10 10 10 10 9 9 9 9 9 10 7 5 3 3 2 5 7 8 10 10 11 10 9 10 9 9 7 7 9 5 4 5 5 4 3 4 4 2 3 1 2 4 2 3 2 5 5 5 5 4 2 2 5 2 3 1 1 3 9 9 4 3 6 6 9 10 9 10 12 12 12
18 15 15 17 18 16 14 13 11 10 9 8 8 8 9 9 9 9 10 10 9 9 9 9 9 10 11 5 5 3 3 3 7 7 8 10 10 11 9 9 10 9 9 6 6 8 4 6 6 5 6 3 4 2 2 4 3 3 6 5 5 2 4 4 3 4 4 2 1 5 3 4 2 1 4 6 5 1 6 6 4 8 9 10 9 10 13 14
18 16 15 16 16 15 13 13 11 10 10 8 7 9 9 8 8 9 9 9 9 9 9 10 10 11 9 5 5 3 3 4 7 7 8 9 10 11 9 9 10 9 8 6 6 6 4 9 9 6 3 2 4 2 1 2 3 5 7 5 6 5 2 4 3 2 3 1 1 5 2 4 2 1 5 3 6 1 5 6 5 7 7 9 9 9 11 14
18 16 16 15 15 14 12 12 11 10 9 8 7 8 8 7 8 8 9 9 9 9 10 10 11 11 6 3 3 4 3 5 7 7 8 9 9 9 8 8 8 7 8 6 7 6 6 10 11 6 1 4 5 2 2 2 4 4 6 4 6 7 3 3 2 2 2 1 2 3 1 5 3 5 5 0 5 4 3 4 5 7 6 6 8 7 8 13
18 16 16 15 14 13 12 12 12 10 9 8 7 8 8 7 6 7 8 8 9 9 10 11 12 11 5 1 3 4 4 6 7 7 8 8 9 8 7 8 7 4 6 7 8 7 7 8 9 6 3 6 3 1 4 4 4 2 4 5 2 6 4 3 2 2 1 1 3 2 1 6 8 9 5 2 4 4 1 5 5 6 6 5 6 6 7 11
17 16 16 14 13 12 12 12 11 10 9 8 7 8 7 5 6 7 8 9 9 10 9 10 11 8 3 1 3 3 6 7 8 8 8 8 9 9 7 7 6 4 5 7 9 7 6 8 9 7 3 4 3 2 4 6 3 2 3 3 2 1 3 6 2 1 3 0 2 5 2 6 8 10 7 5 2 5 6 7 7 7 6 6 6 7 8 10
18 16 15 14 13 11 11 13 11 10 9 8 8 9 7 5 6 7 9 9 9 10 10 9 9 6 2 2 2 3 7 7 8 8 8 9 9 7 7 7 6 6 7 7 9 8 7 10 9 6 1 2 4 6 4 4 4 4 2 1 3 2 4 8 3 2 3 1 4 6 2 6 8 9 6 4 2 7 7 7 7 7 7 7 6 7 8 9
18 17 15 14 14 11 12 13 11 10 9 8 8 8 7 6 7 9 10 11 10 10 8 7 6 5 2 1 0 3 5 5 8 9 8 10 8 6 8 8 7 8 8 7 9 9 8 8 5 3 3 3 5 6 4 4 3 4 3 2 2 2 2 5 2 2 1 1 3 2 3 4 5 7 6 3 5 5 3 6 6 7 8 8 6 7 7 8
19 18 15 14 14 12 12 13 12 11 9 8 8 8 8 9 9 11 12 13 12 9 7 5 4 2 1 1 1 2 4 6 9 10 8 7 7 9 10 6 4 7 8 7 7 5 6 5 2 1 3 4 3 6 5 1 3 3 3 2 3 3 2 2 3 3 4 1 2 2 2 6 6 8 9 5 5 4 3 6 7 6 7 7 7 7 7 8
20 18 15 14 13 12 13 14 13 12 10 10 11 11 12 11 11 13 15 16 14 10 7 3 3 1 2 2 3 3 4 9 11 10 8 7 8 9 7 4 4 6 7 5 3 3 3 4 2 2 3 3 2 5 5 5 5 5 3 3 2 1 3 2 3 2 3 2 1 1 2 9 11 10 11 8 2 3 7 7 6 6 6 7 7 7 8 8
19 17 16 14 12 13 15 15 13 13 12 12 14 16 15 13 12 11 11 11 8 5 2 2 4 3 4 4 2 2 6 11 11 8 8 8 8 7 6 6 6 6 5 2 2 1 2 3 4 3 2 3 5 6 7 8 8 9 6 5 5 3 3 5 4 4 1 3 2 4 5 8 10 9 11 10 2 0 7 7 6 7 6 7 7 8 9 9
18 16 14 12 12 14 15 15 13 13 14 16 18 16 11 8 7 4 2 1 2 2 1 4 5 2 0 1 3 7 9 9 5 5 7 7 8 8 6 5 5 6 3 4 2 1 3 4 3 5 7 8 8 7 5 5 6 8 6 5 4 4 2 4 3 5 0 3 3 4 4 8 10 11 12 10 5 3 8 8 8 9 7 8 8 9 10 11
16 14 13 14 15 15 15 14 13 14 15 19 19 9 4 5 4 4 3 1 2 1 2 3 4 2 1 3 7 8 6 4 2 2 6 6 7 8 1 3 5 3 0 3 3 2 4 5 7 7 8 7 7 7 7 7 6 6 6 5 2 3 2 3 2 5 3 1 3 1 3 9 10 11 12 8 6 7 10 9 10 11 10 8 9 11 12 10
15 14 14 17 17 15 15 14 14 14 15 18 13 3 3 4 4 10 8 2 2 3 3 1 3 3 1 3 6 3 3 3 1 0 3 4 4 5 1 3 6 4 1 2 4 3 3 4 9 7 5 7 6 5 7 7 6 5 4 6 3 2 2 3 2 4 4 0 4 4 4 9 10 11 12 10 8 9 8 9 10 10 10 9 9 11 11 10
16 16 18 18 17 16 15 14 14 13 15 17 10 3 4 5 9 15 9 4 1 3 4 1 2 2 2 2 5 1 4 4 5 4 3 5 3 3 4 5 5 4 2 4 6 5 3 5 7 5 7 8 6 3 7 7 4 4 4 5 3 2 1 1 2 3 4 1 2 3 4 8 7 7 10 8 6 7 7 7 9 9 10 12 11 9 9 11
18 18 19 18 17 16 14 15 13 12 16 16 9 5 7 8 12 13 5 4 2 1 1 1 1 3 2 2 4 3 3 2 4 5 4 6 4 3 5 5 5 5 3 5 8 7 5 5 2 7 6 7 7 3 6 7 2 1 3 6 4 3 4 3 1 1 3 3 2 3 4 6 5 5 7 5 4 5 5 5 8 9 10 11 10 9 9 10
18 18 18 18 16 15 14 12 10 13 15 11 8 7 8 9 11 9 4 4 1 1 1 1 0 3 4 3 3 3 3 1 0 2 3 6 6 4 3 2 4 4 4 5 7 6 5 3 4 8 4 5 8 4 5 7 2 2 3 6 7 7 6 2 2 4 4 4 4 5 3 5 5 4 6 5 7 7 5 5 8 9 7 7 9 11 9 8
18 17 17 17 16 16 14 7 8 15 12 5 7 9 8 9 10 7 5 4 1 1 1 2 1 4 6 3 2 3 3 1 1 1 3 5 3 3 4 2 2 3 5 5 4 3 2 2 4 7 6 6 7 4 5 6 6 1 4 5 6 7 8 5 3 4 1 2 3 4 2 4 6 5 7 6 8 10 8 6 9 8 7 7 8 9 7 7
18 16 17 16 16 18 10 3 11 15 6 4 10 9 7 9 10 6 5 4 2 2 4 1 1 5 7 2 3 6 3 3 1 3 3 3 1 4 4 4 2 2 3 4 2 2 2 3 5 6 6 6 5 3 5 7 8 3 4 6 8 7 8 6 5 4 2 3 4 5 4 2 6 5 6 6 7 10 10 9 10 8 7 7 7 8 7 7
18 17 17 15 16 15 6 6 16 11 2 7 12 9 7 9 8 5 5 2 2 2 4 1 0 5 3 2 4 5 2 2 4 1 2 4 1 4 4 5 5 4 1 4 4 3 1 4 4 5 6 4 4 4 5 8 6 3 4 7 6 6 7 5 6 4 0 1 4 5 1 1 6 6 5 5 4 8 10 9 9 8 8 7 6 6 6 6
16 18 16 15 14 10 4 8 14 7 4 10 12 9 9 8 5 4 3 3 2 2 1 1 3 3 2 3 4 4 1 2 2 3 2 4 2 4 3 4 6 7 3 4 5 3 1 3 6 6 5 5 3 1 3 5 2 4 6 7 6 6 6 5 5 4 2 2 4 6 1 2 5 7 4 3 2 7 8 7 7 7 8 7 6 6 5 5
12 17 18 16 14 9 6 7 9 7 7 11 12 10 8 5 3 4 3 4 2 2 0 2 3 2 5 6 2 3 2 2 1 1 2 1 3 6 3 3 6 7 4 6 3 1 2 1 2 3 3 5 4 3 2 1 4 7 7 7 7 6 5 4 3 4 3 2 6 6 2 1 3 6 4 3 4 6 3 5 7 7 7 7 6 6 6 5
8 14 19 19 14 10 7 5 6 8 8 11 13 9 5 3 3 5 5 3 3 2 0 2 2 4 10 10 3 0 2 2 1 3 3 1 3 4 2 2 4 5 3 4 3 4 4 3 1 1 1 4 6 5 4 4 4 7 5 5 5 4 5 4 4 4 2 4 6 5 2 2 3 6 4 4 6 5 4 4 6 6 7 8 7 6 6 5
7 10 17 19 15 11 6 5 7 6 7 12 11 5 4 4 2 5 3 1 2 3 3 4 3 6 10 8 4 3 3 2 0 4 5 3 3 3 3 4 4 4 2 3 1 2 2 1 2 3 1 4 6 5 4 5 5 5 5 6 4 2 3 2 3 1 3 5 3 2 2 2 5 8 8 10 9 6 7 7 6 7 7 7 7 7 7 6
6 9 14 16 14 11 6 6 9 6 8 13 7 4 6 4 6 5 2 1 2 2 3 3 3 6 10 8 5 4 3 2 2 2 2 3 4 4 2 3 5 5 3 4 3 2 1 4 2 1 1 2 5 6 4 1 1 4 5 5 4 3 2 2 4 2 3 4 3 3 2 2 4 5 9 13 9 6 7 7 7 7 8 7 7 7 7 6
5 7 10 11 12 12 8 8 9 8 9 10 5 5 5 5 5 4 4 3 1 2 2 4 7 8 7 5 5 5 3 1 3 4 3 3 5 5 5 4 3 5 4 3 3 5 4 4 3 4 2 3 4 4 6 6 3 3 4 5 5 5 4 4 4 3 4 3 3 3 2 3 2 1 5 9 7 5 5 6 6 6 7 7 7 6 5 6
5 7 7 8 10 11 9 8 8 9 8 6 5 4 7 7 2 3 5 4 1 3 4 4 8 8 4 2 2 4 3 2 3 4 4 5 5 7 6 5 4 4 5 5 3 2 4 4 5 2 2 5 5 3 4 7 2 1 3 5 3 4 5 3 3 5 3 1 2 2 3 4 3 5 6 4 5 6 6 7 7 6 6 5 6 6 5 5
5 6 6 6 7 8 9 8 6 7 6 5 5 6 6 4 3 3 4 3 4 5 7 4 4 6 4 2 2 5 1 3 4 3 3 4 3 5 6 4 6 6 6 6 3 1 3 3 5 3 2 2 3 2 2 4 3 2 2 3 5 4 7 5 2 1 3 1 3 1 4 5 3 6 7 4 5 6 4 6 6 6 7 6 5 5 5 4
3 4 5 4 6 8 9 7 6 6 4 4 7 7 2 2 3 3 1 3 4 7 9 5 2 4 5 4 5 7 2 3 3 3 4 3 2 5 6 4 5 8 7 4 2 3 5 1 4 1 1 2 1 2 4 3 3 5 3 5 4 2 4 4 1 3 4 2 5 1 4 5 2 3 7 6 5 6 4 4 6 5 4 5 5 5 5 4
3 3 2 3 7 7 6 6 7 6 4 2 7 5 1 1 2 1 1 3 5 5 6 5 3 3 5 5 6 7 5 4 5 4 4 4 4 5 8 4 4 8 8 3 2 2 5 2 4 1 2 4 4 3 2 5 3 4 4 3 4 3 1 2 2 1 1 2 4 4 3 3 4 4 5 4 4 5 5 3 3 2 2 3 4 4 4 3
3 3 1 3 8 8 8 8 6 6 4 4 8 5 1 1 1 1 1 1 3 4 4 5 2 2 4 6 6 6 5 6 7 5 4 4 4 5 8 5 3 7 8 5 3 3 4 3 3 2 1 2 4 2 4 1 4 3 3 3 3 3 4 2 3 3 3 3 2 4 4 3 6 6 6 9 7 4 3 2 2 3 2 4 3 2 2 3
2 2 1 6 11 11 12 10 5 4 4 6 6 3 0 1 1 2 1 1 1 2 3 4 3 3 4 4 4 5 4 5 8 6 4 5 5 4 6 6 5 7 7 5 3 3 3 3 3 2 3 1 2 3 6 7 4 3 3 4 2 1 2 2 1 3 4 4 2 3 4 5 6 4 7 10 7 6 6 6 5 3 3 3 2 2 2 2
2 2 1 5 13 14 13 7 3 1 3 2 2 1 0 0 1 2 2 3 2 1 1 4 4 4 5 4 3 5 4 4 6 5 3 6 6 4 5 7 7 7 6 4 3 4 3 3 4 2 0 4 5 4 4 6 6 6 6 7 7 4 4 3 3 1 2 3 4 3 4 7 6 3 6 7 5 7 7 6 6 3 1 2 2 4 4 3
2 1 1 4 12 14 9 4 1 2 1 2 3 2 1 1 1 1 1 3 3 1 2 3 2 3 4 4 3 5 6 4 5 5 4 6 7 5 3 4 8 10 8 5 4 4 3 4 4 3 3 6 6 4 1 2 3 4 3 4 6 4 5 6 5 4 1 1 3 3 2 7 6 2 4 5 4 5 5 5 6 5 5 4 2 5 5 5
2 1 1 4 10 9 5 4 4 3 2 2 3 2 1 1 1 1 0 1 1 1 2 1 1 1 2 2 3 6 7 5 5 6 3 3 5 4 3 6 8 9 8 4 3 3 2 4 4 1 3 4 5 5 3 2 3 2 2 2 5 3 3 5 5 4 3 3 3 3 3 7 6 3 1 3 2 1 1 2 5 7 4 2 4 6 6 6
1 0 1 3 6 5 3 3 5 5 4 3 3 2 1 1 2 2 2 1 2 2 2 1 0 1 1 2 3 6 7 4 5 6 3 3 4 1 1 6 8 8 6 4 5 5 3 3 5 3 2 3 4 3 3 2 2 3 3 3 4 5 6 4 2 3 2 5 7 5 5 7 5 5 4 3 2 3 1 2 4 6 3 4 5 6 6 6
1 2 1 3 2 2 2 1 3 5 6 6 6 6 4 2 3 4 3 3 2 2 2 0 0 1 2 2 2 3 5 3 3 4 2 2 2 2 2 3 7 7 4 2 5 6 5 4 5 6 6 6 6 5 4 4 3 2 3 5 6 7 9 5 2 3 4 5 7 6 7 5 3 5 5 2 2 3 4 4 2 3 5 6 6 5 5 4
1 2 1 1 2 1 1 1 2 3 7 8 5 6 8 6 2 2 3 3 2 3 2 1 0 2 2 2 3 3 4 1 2 3 4 3 3 1 2 0 3 4 2 4 6 6 4 3 5 8 10 10 8 5 4 8 7 5 6 8 8 8 10 7 4 5 7 3 3 8 8 5 5 4 3 5 5 6 6 4 4 4 5 6 5 5 5 6
1 1 2 2 0 2 1 0 1 1 4 7 5 5 10 9 2 2 3 3 3 5 3 1 1 2 2 4 3 2 3 1 2 3 4 3 3 2 2 2 3 1 2 4 5 5 4 3 6 8 10 8 5 5 6 9 10 12 11 11 11 10 10 10 8 11 7 4 6 10 6 7 11 7 7 9 6 4 5 5 4 4 5 6 6 7 8 8
1 0 0 1 1 2 2 2 5 2 1 3 3 4 9 10 6 5 4 1 2 5 4 1 4 7 6 5 4 3 4 2 1 2 3 2 2 1 2 1 1 1 2 2 2 3 5 5 5 6 7 6 3 4 7 9 9 10 11 12 13 12 13 14 15 15 9 7 13 11 9 11 14 7 9 11 7 6 6 4 2 4 6 7 7 8 7 7
1 1 1 2 1 1 1 2 7 4 2 3 3 3 8 11 10 6 3 4 2 4 6 5 9 11 7 5 4 4 5 5 4 4 3 3 3 3 2 1 1 1 3 4 2 2 4 4 3 5 5 4 3 3 6 9 7 6 8 10 12 13 16 17 18 18 13 11 13 7 6 11 10 6 9 10 5 4 3 2 4 6 6 6 6 6 7 7
1 1 1 2 2 1 2 2 7 5 3 4 4 4 6 11 13 8 3 6 6 4 7 10 10 10 10 7 5 5 7 6 4 4 5 5 3 3 3 3 2 2 3 3 2 1 3 3 2 5 3 4 3 3 3 6 8 7 6 7 9 12 15 16 15 13 8 9 12 9 8 12 6 6 8 8 3 2 2 3 5 6 6 5 5 6 7 6
2 1 1 3 1 0 1 2 4 4 4 5 5 4 5 8 11 8 2 4 6 7 9 12 8 5 6 8 8 10 11 7 3 4 6 5 3 3 2 2 3 3 2 1 1 1 1 2 2 4 4 5 3 5 4 4 4 2 5 8 11 11 10 10 9 7 8 11 12 9 10 12 5 7 6 4 3 4 3 4 6 5 4 5 5 5 5 5
3 3 2 3 1 1 2 2 3 5 5 6 6 3 3 3 5 7 4 3 4 7 9 11 9 5 4 8 13 15 11 5 2 3 4 2 1 2 2 2 4 4 3 2 1 1 2 3 2 3 4 3 2 7 6 5 3 3 9 12 13 11 7 4 3 6 10 11 9 8 11 10 4 7 5 2 4 4 3 4 4 2 1 1 1 1 3 4
Wind_Direction
179 182 183 179 176 176 178 178 175 175 175 176 179 180 179 177 182 185 188 192 194 193 192 195 192 195 198 193 197 212 212 197 191 183 186 200 198 202 204 208 208 182 176 167 156 142 117 89 111 108 106 89 24 301 21 7 68 63 83 100 140 174 197 182 175 194 178 180 191 197 182 142 156 221 209 42 46 76 78 34 342 315 331 263 271 289 166 167
177 179 187 188 180 177 181 181 177 178 177 176 179 181 182 180 185 186 189 194 197 196 191 193 194 196 199 196 195 198 196 192 195 201 205 198 194 204 206 201 191 174 171 163 158 144 122 100 113 100 85 77 357 2 32 341 77 87 113 108 203 199 198 195 177 192 177 164 174 168 177 159 163 172 139 131 233 92 113 2 348 337 315 358 353 153 158 165
179 181 192 195 186 182 183 180 178 180 177 177 180 181 185 184 186 189 191 194 196 196 190 190 196 199 200 198 194 190 185 178 198 229 212 193 187 203 203 192 181 169 165 156 153 138 126 126 124 105 68 72 349 14 74 11 56 147 122 106 235 209 208 229 187 203 215 156 150 159 176 163 177 170 144 160 164 158 172 200 350 256 253 323 107 146 155 166
186 189 197 196 187 186 183 179 179 180 180 181 182 184 188 186 187 191 193 192 196 195 189 188 194 200 201 201 195 187 174 147 238 210 189 185 184 193 188 180 174 163 158 149 146 132 114 112 108 90 73 76 336 11 125 279 243 148 119 168 223 186 170 215 192 220 226 158 151 145 123 129 220 183 137 146 136 263 241 214 192 198 200 175 175 158 158 168
189 196 201 192 187 188 183 180 180 180 183 183 187 194 191 188 190 192 193 193 195 194 190 188 191 198 201 200 193 187 158 112 232 172 172 186 185 185 178 174 171 161 158 149 143 126 109 103 91 68 71 104 358 38 201 267 111 101 115 201 201 155 130 197 182 196 155 123 115 123 144 174 179 128 152 154 158 229 233 214 203 193 174 167 173 168 163 172
190 198 198 187 188 189 183 179 180 182 185 185 192 199 192 191 193 193 194 194 195 193 192 190 189 193 197 195 187 185 158 151 221 144 170 186 182 182 173 172 168 157 159 153 140 122 102 80 84 96 75 85 139 135 204 294 69 116 269 259 214 202 188 7 121 199 132 118 135 156 172 149 121 203 194 174 200 224 231 228 208 185 167 163 159 163 169 178
191 196 189 183 186 187 183 180 182 185 186 188 194 197 192 193 195 196 196 195 197 193 191 191 188 189 186 176 170 155 139 239 209 143 168 176 179 182 169 169 162 157 162 151 137 121 101 88 111 141 92 80 167 158 174 9 43 97 152 302 247 218 243 356 32 89 116 132 180 169 130 142 157 185 114 207 237 244 278 296 187 154 152 154 154 170 180 184
189 189 182 180 184 186 183 181 183 186 188 191 194 192 189 190 193 197 198 197 197 193 192 191 188 183 172 163 146 70 325 245 169 153 168 170 177 177 168 167 158 161 164 154 149 141 122 114 146 148 100 181 169 141 135 65 40 88 154 212 93 6 327 353 37 63 82 119 159 114 124 208 186 152 115 236 250 259 293 16 121 136 143 157 168 181 185 191
184 182 179 179 183 184 184 184 183 185 189 190 192 188 181 185 191 195 197 198 195 193 191 187 188 175 166 161 113 107 235 207 160 164 167 169 175 176 173 167 162 166 158 157 153 146 147 149 175 170 144 194 145 134 155 110 219 171 133 144 102 11 339 2 30 39 48 62 67 120 138 311 233 167 258 244 249 252 71 71 115 137 150 175 182 185 187 193
182 180 179 182 186 184 183 185 183 184 187 189 195 191 181 181 187 192 194 196 193 190 185 183 185 170 167 154 98 152 233 152 162 171 168 170 173 174 174 168 169 170 159 152 150 145 156 174 175 151 131 129 116 122 151 141 187 149 107 100 82 16 332 22 40 356 10 29 45 152 201 301 313 314 256 265 285 215 101 88 136 153 168 187 188 195 194 197
184 184 185 187 189 190 189 188 187 185 186 189 196 193 185 181 184 191 193 193 189 183 180 180 177 169 167 136 119 195 230 153 169 168 167 172 171 173 171 170 173 175 165 145 166 168 144 159 147 115 123 140 117 80 238 157 116 121 119 92 14 359 356 32 78 338 356 60 46 131 171 307 354 286 227 274 332 285 140 134 167 180 193 197 196 201 199 208
187 188 189 189 192 200 199 192 188 186 190 193 196 192 183 178 183 190 190 188 184 177 176 176 174 169 151 94 145 207 190 161 170 164 168 169 168 172 166 171 174 178 175 153 179 175 133 150 130 99 177 143 123 101 168 116 87 115 108 101 343 2 15 356 76 300 352 122 267 120 55 306 253 231 215 88 7 29 123 169 200 209 217 216 212 212 209 218
188 187 189 191 197 202 197 191 189 189 192 192 196 192 180 178 185 188 183 180 176 170 173 174 172 164 132 86 210 193 172 170 169 163 166 168 169 171 166 173 172 171 178 166 173 160 139 157 132 112 122 109 125 181 118 64 75 121 65 101 13 13 352 323 31 302 74 141 280 140 193 281 254 251 246 306 11 66 162 240 237 237 238 237 227 224 225 224
186 187 192 195 199 201 194 189 191 189 188 192 195 185 177 180 184 178 170 167 165 163 169 171 164 151 115 218 224 182 180 175 166 160 162 172 168 161 162 166 167 160 155 155 156 143 139 148 120 102 97 96 128 106 56 22 37 95 61 63 46 89 260 305 344 189 138 200 352 104 162 265 269 278 277 300 331 159 217 241 235 243 246 244 237 231 237 231
188 190 196 199 199 201 193 187 190 188 185 189 183 176 180 184 177 163 155 153 151 156 161 160 155 132 78 289 257 180 183 171 164 163 163 169 160 153 158 150 144 131 124 135 138 124 122 127 103 85 89 37 83 88 46 12 20 44 101 327 349 156 255 312 331 157 161 278 32 92 191 267 278 279 275 325 65 163 208 238 241 249 246 244 243 236 241 243
191 192 199 202 201 204 193 185 188 184 179 180 174 173 172 161 152 142 142 139 135 146 145 141 151 130 106 254 166 161 180 171 167 166 162 168 165 154 147 134 121 119 116 115 120 111 97 96 72 79 114 67 85 99 66 32 358 3 103 181 265 161 262 318 341 321 324 278 9 68 210 264 290 275 274 349 63 119 202 254 258 252 250 248 243 241 243 250
192 193 201 204 209 213 194 183 183 178 174 173 165 155 144 136 136 133 130 124 118 120 110 117 158 145 101 109 113 185 189 172 169 163 158 165 165 151 140 121 100 112 104 98 109 92 57 52 52 89 67 71 102 97 85 15 268 297 52 127 216 180 189 288 291 312 20 59 301 3 241 249 272 284 289 318 39 32 309 272 260 248 252 253 248 252 248 247
192 195 200 205 214 210 188 180 179 174 168 160 145 132 123 116 118 120 121 116 104 88 76 84 125 154 248 205 183 204 171 160 161 156 149 147 146 145 138 113 106 104 81 68 73 52 27 24 66 105 41 60 119 105 138 210 200 189 177 143 190 206 196 245 253 251 39 54 248 2 281 263 272 286 292 296 359 335 282 266 264 257 249 253 253 253 250 248
192 195 198 206 210 195 181 179 177 169 160 148 134 121 108 96 94 100 110 111 102 93 112 174 149 160 222 214 192 120 133 147 150 147 139 134 135 127 103 98 99 94 93 84 41 34 68 52 67 119 130 160 184 165 175 200 175 170 174 145 149 163 222 243 253 263 140 115 228 221 237 268 277 284 286 288 341 323 278 283 276 265 252 252 249 247 249 248
191 194 199 203 194 180 173 171 170 167 160 149 139 123 107 102 88 82 77 71 170 160 186 192 163 148 253 187 126 115 121 129 133 139 137 140 139 118 73 55 64 63 110 148 137 56 90 120 170 181 185 191 188 169 147 153 142 138 127 108 137 154 216 248 266 299 301 143 245 229 243 270 273 275 271 278 326 316 277 276 267 262 256 250 247 249 248 243
184 190 195 186 173 167 164 165 166 167 167 160 153 137 142 160 131 156 184 281 248 333 345 204 143 105 45 120 141 137 117 90 47 102 138 147 136 133 64 27 101 86 243 158 132 45 76 147 210 211 193 176 158 148 113 97 91 99 124 118 107 156 204 241 241 310 339 178 256 12 325 271 263 270 269 271 290 270 249 248 254 255 253 254 254 254 252 252
181 185 179 170 165 163 162 165 168 171 173 171 172 208 205 170 134 152 148 118 249 14 41 163 84 60 22 129 159 157 72 89 103 338 156 137 110 148 162 69 132 162 290 117 106 62 71 204 228 214 161 109 99 118 97 87 89 82 107 123 128 183 229 286 301 327 356 306 265 348 338 276 261 261 264 259 251 252 245 235 243 249 253 255 249 251 256 263
176 176 170 167 163 162 165 166 169 176 177 176 190 238 172 143 136 145 128 87 174 16 46 77 87 91 44 126 184 153 80 134 175 224 197 138 109 154 133 104 135 140 132 154 141 132 152 250 237 174 139 115 93 83 93 87 79 87 108 127 155 234 151 219 295 327 360 59 255 316 309 281 279 278 276 269 254 265 268 251 248 245 243 247 248 252 254 254
167 166 166 165 160 162 167 166 171 181 180 182 205 209 147 137 148 148 106 68 142 353 34 262 186 155 136 144 178 142 111 144 166 190 186 145 133 134 138 134 128 129 175 170 146 154 198 262 172 122 127 128 117 108 122 120 67 46 135 135 157 203 169 171 287 343 356 13 21 1 324 293 315 329 293 300 327 297 293 294 274 253 242 252 265 266 253 249
159 163 162 160 157 156 156 162 180 181 177 187 209 188 144 142 160 153 95 72 134 324 309 247 253 190 170 123 144 151 127 97 175 198 181 149 138 128 142 134 126 163 187 140 131 164 224 267 125 120 101 104 122 156 173 149 129 302 215 175 174 172 159 152 39 54 35 354 352 22 1 293 315 321 275 306 343 312 313 313 276 267 266 265 268 265 257 255
158 161 159 156 152 148 149 166 192 175 170 193 197 174 150 151 162 154 95 61 261 257 170 177 145 179 175 132 136 132 110 243 301 50 123 138 130 106 131 122 79 169 174 135 129 170 224 4 92 128 123 104 116 157 204 153 122 222 231 175 150 129 126 133 98 72 82 269 324 38 105 265 306 301 271 311 334 307 308 297 277 283 286 268 257 264 266 262
168 163 162 160 153 154 153 165 173 167 165 195 185 173 161 156 157 149 83 45 271 192 138 197 322 163 171 172 138 129 159 223 114 66 86 120 53 54 117 171 111 144 171 124 126 224 163 78 65 100 107 106 123 165 203 146 123 207 221 129 121 117 125 134 103 87 199 238 329 11 108 234 295 271 272 321 331 310 308 298 294 299 292 282 270 267 268 262
174 175 174 168 163 166 165 148 161 168 187 173 173 174 163 155 155 131 89 111 230 134 136 230 99 142 148 36 84 108 207 213 126 184 352 80 94 46 99 186 151 139 137 118 175 254 127 140 159 128 107 132 177 205 184 130 110 227 188 118 119 120 124 119 97 92 332 346 319 317 92 183 274 274 304 345 327 298 296 291 298 308 306 304 298 289 282 272
167 178 182 167 160 171 175 161 167 180 186 164 167 172 158 150 149 95 84 189 172 86 130 141 124 139 94 73 57 48 21 33 122 222 354 79 81 46 116 183 132 117 54 90 165 234 44 188 190 138 129 178 196 232 161 126 101 178 135 97 77 74 80 80 92 107 49 27 251 261 231 173 268 287 316 5 279 262 272 282 288 300 305 303 307 318 325 321
152 175 180 167 164 174 166 166 177 177 172 169 168 166 152 138 126 116 175 217 140 88 338 134 157 158 128 130 40 360 69 35 4 64 30 74 35 32 101 138 97 101 35 36 95 255 316 274 189 116 143 179 146 94 106 109 127 133 108 75 60 35 33 47 54 84 66 315 255 252 256 154 269 283 257 205 221 214 228 297 299 311 322 316 317 327 334 337
132 167 176 174 176 176 158 161 175 161 165 174 168 160 137 78 84 147 198 220 111 94 53 129 155 135 147 155 152 21 98 27 318 126 123 138 52 49 113 116 80 82 49 35 32 326 350 28 315 281 161 130 100 75 40 23 82 104 89 87 84 7 10 26 1 37 101 257 261 263 266 159 218 264 258 246 252 226 201 260 277 291 308 314 323 328 329 328
119 148 168 176 179 175 168 173 168 150 159 168 160 142 100 86 181 191 202 226 146 179 178 168 179 156 157 151 126 153 133 69 290 144 143 147 141 163 162 164 155 109 149 183 152 344 19 41 291 314 258 143 107 83 43 10 28 76 93 95 91 8 11 1 315 345 216 243 263 261 234 200 232 252 260 262 262 245 225 222 235 259 277 295 317 323 323 323
126 139 159 170 173 174 172 163 160 142 151 162 150 65 78 133 207 195 152 228 207 168 143 128 118 141 148 142 148 164 113 120 197 144 129 127 151 200 224 180 149 123 176 182 128 124 319 309 303 55 294 195 133 126 129 169 76 117 133 123 122 123 93 266 269 284 258 259 286 275 234 248 267 262 250 251 252 241 232 229 231 245 258 275 294 302 306 312
131 143 158 164 166 170 161 149 157 148 150 159 131 76 119 183 206 141 140 213 248 51 74 106 110 123 137 144 182 179 98 133 184 131 118 118 141 200 223 217 155 102 116 141 146 166 173 271 233 165 216 193 165 171 154 147 147 166 156 128 141 156 154 205 221 211 240 276 303 289 250 196 202 266 239 239 263 284 268 268 272 262 256 269 290 304 310 314
124 135 151 161 168 172 163 152 156 159 162 147 108 131 179 199 201 123 160 190 182 50 46 84 115 129 143 89 204 205 135 161 187 129 149 166 169 195 196 196 186 126 132 158 201 171 154 243 260 271 263 162 169 222 130 114 109 240 123 104 158 185 140 136 184 173 169 310 302 259 239 210 205 285 279 248 280 303 300 304 308 299 299 314 319 323 321 311
127 127 131 149 167 175 177 173 158 164 169 130 138 190 201 189 179 178 169 145 145 131 105 83 97 132 165 134 196 227 148 121 163 148 179 195 192 198 192 193 185 174 163 155 169 164 147 259 300 339 343 134 166 224 111 121 175 169 122 170 215 174 114 112 213 70 81 238 270 215 246 291 326 297 301 318 295 295 311 315 302 289 310 329 319 307 303 306
122 120 114 133 162 172 176 175 159 157 145 127 173 199 193 129 170 179 161 115 138 137 128 137 155 149 166 167 188 204 172 120 156 166 186 199 227 198 192 226 194 182 186 154 164 196 153 202 309 21 119 295 297 113 60 34 121 124 172 208 194 124 90 105 186 358 44 245 277 262 234 289 338 277 319 346 300 268 248 291 298 286 299 309 299 297 287 291
105 95 78 137 164 171 169 159 148 131 89 122 196 204 96 120 169 148 142 133 130 127 137 160 165 144 165 177 185 186 173 165 170 176 172 186 244 201 173 198 196 184 196 158 136 207 141 143 307 4 160 298 349 92 76 356 54 128 179 171 117 139 168 88 148 178 130 236 285 302 271 262 203 226 297 290 237 238 236 269 300 238 197 256 291 315 304 323
115 90 18 181 161 162 167 154 124 98 105 186 209 215 153 147 214 240 216 94 103 119 156 182 158 124 169 173 167 173 185 179 169 178 180 179 237 218 175 185 189 184 191 154 141 195 139 146 262 315 276 307 13 116 193 237 31 57 101 102 79 135 163 156 152 159 172 196 269 307 320 274 228 212 224 232 216 192 201 156 146 192 230 275 289 334 344 5
100 86 272 195 164 159 158 141 80 75 150 193 205 203 127 119 271 264 254 31 69 115 165 189 157 139 163 164 159 173 184 174 168 183 200 182 208 237 201 189 172 174 177 139 133 168 126 154 215 304 342 205 194 220 190 169 150 113 120 153 173 81 109 155 157 120 141 160 188 284 303 272 252 205 199 227 216 184 185 146 151 229 294 301 256 217 247 313
47 88 260 187 166 163 151 125 52 96 148 188 181 146 235 145 13 323 348 67 83 61 139 156 155 152 152 152 177 180 160 155 173 184 207 197 199 224 217 187 159 150 145 130 156 176 151 156 169 152 197 202 228 260 197 172 172 166 174 186 180 154 126 150 246 233 116 152 170 189 269 264 254 207 205 228 207 191 192 148 145 199 178 118 185 221 234 269
72 119 264 185 172 169 148 119 113 132 145 197 154 138 191 147 73 328 335 53 74 50 63 104 129 150 158 159 170 168 153 157 184 186 204 208 196 204 216 168 149 149 151 157 184 179 130 110 129 162 213 217 245 277 215 164 133 135 191 195 168 158 138 151 208 223 136 174 151 121 262 267 266 233 216 242 235 197 184 145 129 143 148 143 220 259 257 250
109 157 245 190 183 173 145 140 159 163 207 190 143 127 136 119 96 182 236 32 65 67 48 56 93 129 173 154 144 167 168 168 187 193 205 210 203 221 204 155 148 154 157 161 172 165 117 108 128 197 304 306 311 333 14 61 94 125 244 174 155 178 147 145 179 174 157 192 153 109 256 266 281 299 272 268 276 153 175 165 135 142 163 212 266 276 270 256
142 116 285 220 201 190 178 173 171 179 180 150 155 172 131 123 215 201 184 156 133 108 95 116 145 116 170 132 134 177 186 179 190 199 195 184 202 251 162 164 160 157 170 188 177 177 198 160 132 127 26 350 332 331 323 284 184 191 220 175 162 142 103 99 128 114 197 215 167 161 237 254 277 320 351 8 59 88 216 241 158 154 199 262 267 265 255 247
116 89 346 297 255 200 214 189 154 169 160 151 176 187 173 187 228 215 189 147 130 143 141 183 249 89 98 92 86 164 182 155 171 191 168 185 230 358 31 188 180 176 195 199 159 164 185 181 147 151 177 197 207 213 217 201 172 193 200 177 175 151 142 161 137 127 231 226 164 184 235 246 277 325 338 347 115 156 220 266 271 209 233 251 257 260 257 265
115 116 129 324 335 287 249 53 98 165 164 158 169 186 184 190 217 185 170 166 166 153 114 32 212 69 65 107 107 158 191 101 82 171 169 185 225 300 352 137 161 179 171 131 145 142 137 191 186 185 204 208 201 199 164 137 148 205 206 178 182 181 174 168 128 176 213 183 172 225 228 224 249 271 260 241 210 197 216 252 273 254 255 272 295 321 338 340
98 144 154 142 292 250 245 86 155 189 174 166 164 178 183 187 181 127 167 195 182 159 131 55 171 179 179 163 143 164 191 114 64 152 164 174 209 292 336 64 86 61 95 136 164 129 110 218 208 196 221 223 195 197 178 153 173 200 196 183 188 187 177 174 191 212 197 129 237 237 190 213 241 220 215 236 226 224 256 270 281 296 302 310 327 344 352 348
83 106 208 79 111 207 228 191 168 163 227 184 164 162 176 182 179 172 177 165 142 165 171 198 215 208 192 169 161 156 157 153 182 184 161 157 164 54 12 60 73 4 75 131 190 120 138 216 209 185 223 235 198 198 187 173 188 200 194 192 191 183 181 190 210 218 186 177 239 231 161 211 239 204 207 232 216 216 251 265 295 311 311 317 332 343 339 320
60 40 311 359 61 194 314 135 151 164 211 190 170 163 173 183 189 187 147 120 148 191 182 195 220 215 199 167 156 166 176 183 200 205 183 155 152 138 123 162 231 19 84 130 177 142 159 211 190 162 203 235 215 196 182 176 185 202 200 196 190 188 193 199 213 221 206 209 246 244 184 232 242 187 211 234 203 193 248 309 309 296 294 307 320 315 298 289
122 189 261 41 57 27 3 101 149 172 208 200 208 201 178 188 194 189 151 158 173 182 189 203 214 208 202 197 189 203 206 189 172 185 178 165 174 184 177 180 174 65 62 124 170 188 197 212 145 127 169 246 220 159 153 166 177 195 206 202 197 198 205 212 219 221 211 228 254 263 257 261 243 173 218 244 202 182 284 285 270 265 261 261 264 270 278 296
143 64 114 108 75 159 61 88 137 164 199 209 211 197 189 207 197 179 193 218 182 165 186 198 193 184 200 207 216 231 231 218 188 174 170 165 167 178 182 174 145 109 62 69 71 38 178 196 76 108 169 241 207 153 129 92 101 198 233 215 202 198 207 218 218 205 194 217 238 246 255 262 226 174 215 238 181 204 225 219 232 248 246 234 235 263 295 321
133 29 61 108 65 236 157 95 141 177 201 210 210 183 166 207 186 167 194 255 211 192 193 182 164 150 176 200 220 232 231 221 176 133 143 149 82 98 141 151 135 124 119 122 81 34 131 139 119 151 185 227 166 145 128 82 74 249 239 215 201 200 200 179 184 215 209 206 213 222 239 249 184 164 210 193 161 211 218 208 241 281 60 126 194 289 329 327
Height
756 757 759 761 762 764 764 765 766 767 768 769 769 770 770 770 771 773 774 775 776 777 778 780 781 782 783 783 784 785 785 786 786 786 784 783 784 785 786 787 788 788 788 788 788 788 790 792 793 794 795 798 802 803 803 803 805 806 816 824 827 832 828 822 825 825 822 817 818 820 820 820 822 822 820 821 821 823 825 825 827 827 826 826 823 822 824 827
755 756 758 760 761 763 764 765 765 766 767 768 769 769 769 769 771 772 773 775 776 777 778 779 780 781 782 783 783 784 785 785 786 784 782 782 783 785 786 786 787 787 788 788 788 788 790 793 793 794 796 801 805 804 805 805 805 811 821 824 824 827 822 818 819 820 819 816 816 819 821 820 819 821 820 822 825 825 825 826 827 826 825 825 824 823 824 827
754 756 757 759 760 762 763 764 764 765 766 767 768 768 769 769 770 772 773 774 775 776 777 778 780 781 782 783 783 784 785 785 785 783 781 781 783 784 785 786 786 787 787 787 788 788 790 792 792 795 798 803 806 806 806 806 807 813 819 820 819 819 818 818 818 817 817 816 816 819 821 820 819 820 819 822 826 826 824 824 825 825 824 826 825 825 825 827
753 755 757 758 759 761 762 763 763 765 765 766 767 767 768 768 770 771 772 773 774 776 776 778 780 780 782 782 783 784 783 786 785 779 779 781 782 783 784 785 786 787 787 787 788 788 789 791 792 795 800 805 808 807 808 808 809 813 816 816 816 817 817 817 817 817 817 817 817 819 821 821 820 821 821 822 827 827 823 819 819 819 821 825 827 826 826 828
753 754 756 757 758 760 761 761 763 764 765 765 766 766 767 768 770 771 772 773 774 775 776 778 779 780 781 781 783 782 783 789 783 776 779 781 781 783 784 785 786 786 787 787 788 789 789 791 793 797 802 806 808 808 809 809 809 812 816 816 816 818 816 814 817 817 817 818 818 820 820 820 820 821 821 822 823 822 817 813 814 814 817 821 823 825 826 828
753 754 755 757 758 759 760 761 762 763 764 765 766 766 766 767 769 771 772 773 774 775 776 778 778 780 781 781 782 781 784 788 780 776 779 780 781 782 783 785 786 786 787 787 788 789 790 792 795 800 804 807 809 809 809 810 810 812 817 818 818 818 814 813 816 816 816 816 817 819 818 819 821 820 822 822 817 813 811 810 811 813 816 817 820 824 825 827
752 753 755 756 758 759 760 760 762 763 764 765 765 765 766 767 769 770 771 772 773 774 776 777 778 779 780 781 781 782 783 782 777 777 779 779 781 782 783 784 785 786 787 787 788 789 792 794 797 802 804 807 809 809 809 810 809 811 816 817 818 818 815 816 817 816 816 814 817 819 818 820 820 820 824 822 813 810 812 812 812 814 817 818 821 823 823 824
751 753 754 756 757 759 760 760 761 762 763 764 765 765 766 767 768 769 770 771 772 774 775 777 777 778 779 780 781 783 783 779 777 778 778 779 780 781 783 784 784 786 786 787 788 789 792 795 798 801 805 807 807 809 810 810 811 811 814 816 818 818 817 818 818 817 817 816 819 820 819 821 822 823 824 819 812 811 813 813 813 815 818 820 820 821 822 823
750 752 753 755 757 758 759 760 761 762 763 764 765 765 766 767 768 769 770 771 772 773 775 776 777 777 779 779 780 784 782 777 777 777 778 779 780 781 782 783 784 785 786 787 788 788 791 795 797 798 802 806 806 808 809 811 813 811 813 817 817 819 819 819 818 817 818 819 820 819 820 823 824 825 820 813 811 812 814 814 815 816 818 820 820 820 821 822
750 752 753 755 756 758 759 760 761 762 763 764 765 765 765 766 767 768 769 771 772 773 775 776 776 777 778 778 781 784 779 775 777 777 778 779 780 781 782 783 784 785 786 787 787 788 790 792 794 794 798 804 807 810 811 810 811 811 815 818 818 820 821 820 818 819 820 820 820 819 821 823 823 825 818 811 813 814 814 815 817 817 817 818 819 820 820 820
749 751 752 754 756 757 758 760 760 761 763 764 765 765 765 766 767 768 769 770 772 773 774 775 776 776 777 777 781 782 777 776 777 776 778 779 780 781 782 784 784 785 786 786 788 787 788 789 791 793 798 803 806 811 812 809 810 812 813 816 820 820 820 821 820 821 821 820 821 819 821 823 823 823 816 812 815 815 813 814 817 817 817 818 818 819 819 819
748 750 751 753 755 756 758 759 760 761 762 763 764 764 765 766 766 768 769 770 771 773 774 775 775 776 776 778 779 778 775 776 776 777 778 779 781 782 782 784 784 785 786 786 787 787 788 789 789 794 799 801 806 812 811 810 813 814 813 815 821 820 819 821 822 823 822 821 823 821 823 825 822 818 813 815 817 816 815 815 817 818 818 819 819 819 819 818
747 749 750 752 754 755 757 758 759 760 761 762 763 764 765 766 767 768 769 770 771 773 774 774 775 775 776 779 777 775 776 776 776 777 778 779 781 782 783 784 784 785 785 786 786 787 788 788 789 794 798 801 808 810 808 812 814 815 817 818 822 823 821 822 824 824 822 823 823 823 828 824 816 815 813 817 818 816 817 816 817 818 818 819 819 819 818 817
746 748 749 751 753 754 756 758 758 759 760 762 763 764 765 766 767 767 769 770 771 772 773 774 775 775 777 778 776 775 776 776 776 777 778 780 781 782 783 784 784 785 785 786 786 787 788 789 790 794 799 803 806 808 810 815 816 819 821 825 832 830 824 823 825 824 822 825 823 823 830 822 812 813 814 817 818 817 816 814 816 817 817 818 819 819 817 816
745 747 748 750 752 754 756 757 758 759 760 762 763 764 765 765 766 767 768 769 770 772 773 774 775 775 778 778 775 775 776 776 777 777 779 780 781 782 783 784 785 785 785 786 786 787 788 789 791 797 803 804 805 810 816 819 821 825 825 831 842 836 825 824 826 826 824 825 823 824 830 823 813 812 814 818 818 816 815 814 815 815 816 817 817 818 816 814
745 746 748 749 751 753 755 756 758 759 760 762 763 764 765 765 766 767 768 769 770 772 773 775 775 776 780 778 776 776 776 776 777 778 779 780 781 782 783 784 785 785 786 787 787 788 789 791 797 803 804 807 810 813 821 826 827 831 830 832 840 835 830 828 826 829 827 826 824 825 828 823 815 812 813 818 817 816 815 814 816 815 815 816 816 816 815 813
744 745 747 748 750 752 754 756 757 758 760 761 762 764 765 765 766 766 767 768 770 772 773 775 776 778 779 777 777 776 775 775 776 778 779 780 782 782 784 785 786 786 787 787 788 790 791 795 803 806 807 813 816 815 824 835 833 834 834 834 839 838 834 831 827 829 829 827 827 827 829 821 814 811 811 814 817 815 814 813 813 813 814 814 814 814 813 812
743 744 746 748 749 751 753 755 756 758 759 760 762 764 765 766 766 767 767 768 770 773 775 776 777 782 781 776 776 775 773 774 776 778 779 780 782 783 784 785 786 787 788 791 792 793 796 800 805 807 812 818 818 816 823 831 828 829 831 830 836 839 837 834 829 829 830 828 829 831 831 822 815 814 811 812 816 815 812 811 811 812 812 812 813 812 810 810
742 744 745 747 749 750 752 754 755 757 758 760 762 763 765 766 766 767 768 768 770 774 776 775 776 781 779 773 773 773 773 775 776 778 779 780 782 783 784 785 788 789 792 797 796 797 799 803 808 812 816 818 816 813 814 818 818 821 826 825 827 832 834 835 830 831 833 830 830 831 829 823 817 817 812 809 815 815 812 812 810 810 811 810 810 809 808 808
741 743 745 746 748 750 752 753 755 756 758 759 760 762 764 765 768 771 771 770 770 772 772 771 772 774 773 772 773 773 774 776 777 778 779 780 781 783 786 788 790 792 796 799 799 802 803 806 812 813 813 812 812 816 816 820 822 822 826 826 828 829 828 832 832 832 835 830 830 834 832 827 820 816 812 811 815 816 812 809 807 806 807 806 806 805 804 803
741 743 744 746 748 750 751 753 754 756 757 758 759 759 760 760 764 768 771 772 771 770 770 770 771 772 772 772 773 773 775 777 779 779 780 780 781 785 790 791 794 798 802 802 802 804 805 811 812 808 810 811 815 822 820 822 826 824 824 824 830 833 829 832 833 833 835 830 830 837 833 826 820 814 811 813 814 811 806 805 804 803 804 804 804 802 800 798
741 742 744 746 748 750 751 753 754 755 756 758 758 758 756 756 756 757 762 769 770 770 770 771 771 773 773 773 773 773 774 779 781 780 780 780 781 786 792 794 796 802 805 804 804 808 812 813 808 809 817 819 821 824 817 819 823 824 827 825 828 835 833 833 834 834 836 830 828 834 830 822 818 814 809 810 810 805 804 804 802 801 801 802 801 799 797 796
740 742 744 746 748 750 751 753 754 755 756 756 757 757 755 755 755 754 756 765 771 771 771 772 772 774 774 774 774 774 775 780 782 781 780 780 783 787 790 795 799 803 805 803 805 813 817 811 807 815 820 815 819 823 817 819 824 824 826 824 828 837 835 830 832 835 837 836 833 831 827 819 814 812 806 808 812 807 806 805 803 803 801 797 796 795 795 794
740 742 744 745 748 749 751 753 754 755 755 756 756 755 755 755 755 755 757 766 773 772 772 773 774 773 774 773 773 774 777 779 781 780 780 780 784 788 789 795 801 805 806 804 805 809 811 812 815 818 817 811 815 822 818 817 824 829 827 823 826 831 831 831 834 836 837 839 838 830 822 815 810 810 804 805 812 806 803 803 799 799 799 797 796 794 794 792
740 742 744 745 748 749 751 753 753 754 755 756 756 754 755 755 756 755 758 770 777 774 774 774 774 773 771 772 773 774 777 779 780 780 780 780 784 788 791 795 799 805 809 809 809 808 808 815 818 814 814 814 814 819 819 817 823 828 825 822 821 820 825 832 833 833 833 835 840 837 827 817 810 807 802 803 805 798 799 800 792 791 795 797 795 791 791 792
740 742 743 745 747 748 752 752 752 754 754 756 754 754 755 754 757 755 759 778 782 776 776 775 774 773 769 772 773 774 780 781 780 780 780 781 782 784 791 796 798 805 811 810 810 810 811 816 816 810 812 815 814 817 820 821 824 826 826 826 825 821 824 830 829 831 834 837 845 845 836 827 815 804 803 808 806 797 795 794 789 791 793 793 792 788 789 790
739 742 743 745 747 748 750 750 751 753 753 754 752 754 755 754 758 755 764 792 788 771 774 777 774 771 769 773 772 775 784 783 780 782 781 782 782 782 790 797 798 803 808 809 810 812 812 814 814 812 812 815 815 816 819 821 821 824 829 830 825 821 825 830 829 832 840 841 845 845 839 838 828 811 813 817 808 797 792 789 788 790 790 789 790 788 787 788
739 741 742 745 746 747 748 748 750 751 751 751 751 754 754 755 759 756 772 798 785 764 769 773 771 769 770 773 773 777 783 780 781 785 782 782 784 783 789 795 796 802 807 807 811 814 813 811 811 811 812 816 815 816 821 819 817 825 835 834 830 829 830 833 832 837 847 845 841 844 843 842 832 815 817 820 808 798 792 790 789 789 789 788 787 787 787 787
738 740 742 744 746 747 748 748 749 749 750 750 752 754 754 756 757 760 779 789 770 761 767 768 770 771 772 775 777 779 781 780 783 785 783 783 784 784 790 795 797 803 808 807 807 813 816 814 813 810 808 812 818 825 829 819 816 829 839 837 836 839 838 838 838 837 845 846 840 842 843 840 829 810 810 815 807 800 794 792 792 790 790 788 786 786 786 787
738 739 742 744 745 747 747 748 749 749 750 750 752 754 754 756 759 773 792 779 757 763 769 767 770 773 775 779 783 784 782 784 785 784 785 785 785 786 791 796 798 802 808 809 811 815 818 818 818 814 812 816 821 829 833 826 825 831 832 830 832 837 838 840 844 840 843 846 844 849 850 844 834 813 804 807 802 798 795 793 793 791 790 788 786 787 786 786
738 739 741 743 745 746 746 748 748 748 750 750 752 754 754 760 767 781 786 763 752 769 773 770 773 773 774 778 783 787 785 787 787 784 787 789 789 790 793 797 799 805 811 812 814 819 818 816 818 818 820 822 819 824 831 832 832 828 823 826 831 838 841 843 847 845 845 846 848 860 861 850 840 817 800 800 799 799 800 795 793 792 790 789 787 788 788 787
738 739 740 743 744 745 746 747 747 748 749 749 753 753 754 768 775 774 770 755 754 768 768 769 773 773 774 776 781 787 787 788 788 786 788 791 793 793 794 795 797 808 818 816 816 820 817 816 819 819 821 819 813 819 830 831 830 826 824 829 835 845 849 847 852 855 852 848 852 863 860 849 840 818 800 798 795 797 800 796 795 794 791 790 790 790 789 789
739 739 741 743 744 745 746 746 747 748 749 750 753 753 758 773 773 762 763 761 758 762 762 765 770 772 774 778 783 786 786 788 788 787 790 791 794 796 795 796 795 800 811 818 820 821 819 819 819 817 817 816 811 816 826 829 828 824 823 827 833 846 853 851 860 865 856 849 856 864 856 843 832 814 801 798 794 796 797 796 799 798 795 793 793 793 791 790
740 740 741 742 744 745 746 747 748 748 749 750 751 756 764 770 763 754 759 764 761 762 763 764 769 774 775 778 783 782 783 789 789 788 791 793 797 798 795 798 799 795 802 817 820 818 820 820 815 812 814 813 812 812 815 819 824 827 828 828 828 834 839 842 847 846 843 847 857 861 847 827 815 805 802 801 799 800 798 799 801 799 798 797 795 794 791 790
740 741 741 742 744 745 746 747 748 748 750 750 752 761 764 760 758 755 756 760 762 764 766 766 770 776 780 780 782 780 779 787 791 790 792 793 794 796 793 794 799 797 798 810 817 817 819 816 812 815 816 812 811 813 813 814 823 833 837 832 828 826 827 842 856 853 851 852 852 850 837 820 810 800 800 804 802 801 800 799 798 795 796 796 792 791 791 790
741 741 742 743 744 745 746 747 748 748 749 750 754 761 757 751 755 755 751 754 758 762 769 772 773 778 783 783 783 782 779 783 790 792 793 794 792 792 790 788 792 793 790 798 811 817 818 816 816 818 817 815 815 815 814 814 819 831 835 829 833 833 827 840 862 869 863 850 841 841 830 818 814 801 794 798 796 796 798 796 795 795 795 793 790 791 793 791
741 742 743 744 745 746 747 747 748 748 749 750 753 756 752 750 755 755 752 754 755 758 764 771 774 776 780 783 783 782 779 782 790 791 792 795 790 787 788 786 785 788 785 789 801 807 809 814 820 819 815 818 822 818 816 818 819 825 829 826 832 838 831 832 843 855 862 851 839 840 832 821 819 808 796 796 793 791 794 794 794 796 794 791 792 793 794 793
742 742 743 744 745 746 747 748 748 747 750 753 751 752 752 752 756 757 756 755 755 755 759 765 770 771 775 779 780 780 778 780 788 790 790 793 786 778 782 783 783 785 784 785 791 797 800 808 820 826 821 820 821 817 817 823 824 821 822 823 826 830 832 836 839 842 852 852 840 838 841 832 823 812 797 793 791 788 792 795 793 792 792 791 793 794 794 793
743 744 745 744 744 747 748 749 748 748 754 758 753 752 754 753 756 758 757 756 754 754 757 760 765 770 773 774 775 779 778 778 786 788 786 788 783 776 776 777 779 784 784 783 787 793 798 803 815 827 826 822 821 818 817 821 826 824 823 826 826 826 828 833 839 837 838 846 843 834 831 822 814 811 797 787 790 791 791 792 790 791 794 793 794 794 794 793
744 745 746 744 744 748 748 749 750 751 756 760 757 757 757 754 755 757 757 756 755 755 756 757 761 766 770 773 773 775 777 778 784 783 780 782 781 777 775 772 775 782 785 785 787 793 798 800 809 824 830 825 819 816 814 814 820 823 823 826 828 830 833 832 837 840 833 837 843 837 826 812 804 805 795 785 791 794 789 787 790 794 797 796 796 794 794 794
745 745 745 744 745 748 747 750 755 757 760 763 761 761 760 756 756 758 757 757 757 759 758 757 759 760 764 770 771 771 775 779 781 780 778 778 776 774 773 769 771 779 786 789 788 789 796 801 809 823 828 821 814 815 816 812 812 814 814 818 819 822 829 830 835 843 839 834 838 838 829 811 798 799 795 787 790 792 789 788 792 796 797 795 795 795 795 795
745 745 744 744 746 746 747 754 762 763 765 764 761 760 758 756 757 758 757 757 757 759 760 759 760 759 760 764 766 768 772 776 780 779 774 774 772 769 770 770 770 774 779 785 786 786 794 802 809 818 822 817 814 819 824 820 814 813 813 814 815 815 817 819 825 836 840 839 841 843 834 809 795 799 799 793 793 793 792 792 792 795 797 795 796 796 796 796
746 746 745 744 746 746 748 757 763 764 765 761 758 758 756 756 758 757 757 758 758 759 760 759 760 760 759 762 765 767 768 771 776 776 771 772 771 768 770 771 770 773 775 780 784 787 792 797 803 814 819 817 814 817 823 822 817 815 816 816 816 816 814 815 821 827 830 831 835 842 836 809 795 801 801 798 798 795 794 795 793 794 796 797 797 796 795 795
748 748 747 745 747 747 748 751 755 760 762 759 758 759 758 757 757 756 756 757 758 760 760 760 761 761 761 763 763 763 764 766 771 773 771 771 770 770 773 771 770 772 773 774 777 780 787 793 800 812 820 820 819 818 817 818 817 814 814 816 814 815 819 823 826 828 826 823 823 828 826 807 797 801 800 798 797 793 792 796 795 794 796 797 797 796 795 795
748 749 750 747 747 748 748 746 748 754 759 760 760 760 759 759 756 754 755 757 758 760 759 760 762 760 762 764 762 762 764 764 766 771 773 772 771 772 774 773 771 769 769 771 771 773 782 790 793 802 811 814 813 810 805 809 817 815 812 813 813 813 817 817 820 826 823 821 822 818 812 805 800 799 798 796 796 794 794 797 799 799 799 798 796 794 793 793
748 749 751 751 749 749 749 748 747 750 753 757 760 759 758 759 756 754 756 758 759 759 759 761 762 761 762 763 762 763 766 767 767 769 771 771 771 773 775 775 773 771 771 772 771 774 782 787 787 788 792 793 791 792 792 797 807 810 807 810 812 813 812 811 818 821 815 819 823 812 803 805 803 800 799 795 792 793 795 797 799 799 798 795 792 790 790 793
748 748 749 751 751 750 750 749 748 748 748 751 754 755 756 757 756 756 757 757 758 759 761 763 762 761 762 763 763 765 766 769 769 769 770 771 771 775 777 776 775 775 774 773 772 776 780 784 785 784 783 785 785 786 790 791 794 798 801 806 809 811 812 813 813 808 805 816 817 804 804 807 801 799 797 790 789 792 792 793 795 795 793 791 790 791 793 795
750 749 749 748 748 749 749 748 749 750 749 748 749 750 754 756 756 756 757 759 760 759 761 765 763 760 761 760 761 765 768 770 770 770 772 772 772 775 775 774 776 776 775 775 775 776 777 779 784 785 785 787 788 789 791 790 789 792 797 801 805 810 812 810 806 800 802 809 801 793 802 801 793 795 793 785 787 790 790 793 795 794 792 791 792 795 796 795
753 753 752 750 749 751 750 747 749 752 751 749 749 750 751 754 754 753 753 759 762 760 760 764 762 759 761 761 760 763 766 766 766 769 771 771 771 774 773 772 775 776 775 775 777 777 775 777 783 786 786 788 792 797 796 792 790 792 797 800 803 807 807 803 799 795 798 802 794 794 804 799 792 795 790 784 789 792 792 795 795 794 794 795 796 796 795 795
753 752 752 751 751 752 752 749 749 753 753 751 751 750 749 751 751 750 751 753 757 760 760 759 758 758 761 763 762 762 760 757 760 765 767 768 769 771 770 769 772 776 775 775 778 778 776 780 784 785 786 789 795 801 802 797 793 792 797 801 803 806 806 803 799 797 801 803 798 800 806 799 793 794 789 787 793 795 796 797 796 797 798 797 797 796 795 796
751 751 751 752 752 752 753 752 751 753 755 753 751 750 750 750 748 748 750 748 749 754 756 755 756 757 760 764 764 761 757 756 759 761 762 763 766 767 768 769 771 774 775 777 779 778 777 783 786 784 786 789 792 800 803 800 797 798 798 798 800 803 803 802 801 799 799 799 799 804 804 793 789 791 790 791 794 794 796 797 797 798 799 798 798 798 798 800
751 752 751 752 753 753 754 754 754 754 752 749 749 749 750 751 749 749 751 749 746 748 750 751 754 757 761 764 761 755 753 756 760 763 763 764 766 767 768 770 771 770 773 778 782 782 781 782 784 786 786 787 793 800 801 799 803 800 790 785 790 796 796 798 800 799 795 794 797 800 791 781 785 789 788 791 794 792 795 798 797 797 800 801 801 801 803 804